Simultaneous Nadir Overpasses (SNOs) Predictions

Prediction of SNOs between LANDSAT-8 and METOP-B Satellite Orbit:

Table of predicted SNOs for the next 14.0 days since TLE Epoch: 7/2/2016
Index Date (LANDSAT-8) Time (LANDSAT-8) Lat,Lon (LANDSAT-8) SZA (LANDSAT-8 ) Date (METOP-B) Time (METOP-B) Lat,Lon (METOP-B) SZA (METOP-B ) Distance(km) Time Diff (sec)
1 07/02/2016 16:22:48 -81.07, 153.58 119.88 07/02/2016 16:22:43 -81.07, 153.40 119.90 3.02 5
2 07/02/2016 17:12:13 81.11, -38.30 60.19 07/02/2016 17:13:22 81.10, -38.48 60.20 3.06 69
3 07/05/2016 11:07:38 81.07, 52.31 60.34 07/05/2016 11:06:28 81.07, 52.39 60.32 1.36 70
4 07/05/2016 11:57:04 -81.09,-139.73 119.61 07/05/2016 11:57:07 -81.09,-139.66 119.60 1.26 3
5 07/08/2016 06:41:55 81.06, 118.58 60.61 07/08/2016 06:40:54 81.06, 118.53 60.58 0.91 61
6
